Weather in Piran

Slovenia     45°31′43″N   13°34′09″E
temp.,
°C
wind,
m/s
gust,
m/s
humid.,
%
clouds,
%
prec.,
mm/h
press.,
hPa
HPBL,
m
10 april, sat
sat1023:00+10sse587198 0.0 1025298
02:00+10ese347440 0.0 1024185
05:00+8ese3483100 0.0 1022135
08:00+9sse5676100 0.0 1023312
11:00+11ssw6675100 0.0 1023568
14:00+12ssw67655 0.0 1023620
17:00+12ssw787073 0.0 1022525
20:00+12sse61074100 0.0 1021336
11 april, sun
sun1123:00+11s4781100 0.1 1022393
02:00+11ese3580100 0.4 1021285
05:00+11s6886100 0.4 1020633
08:00+10sse41093100 5.3 1020601
11:00+12sse81389100 3.4 1020715
14:00+12sse81385100 4.5 1020640
17:00+12sse81190100 3.1 1020593
20:00+12sse81292100 4.4 1020545
12 april, mon
mon1223:00+12s71291100 1.6 1020462
02:00+12sse7119499 2.6 1020423
05:00+12sse71291100 0.3 1018472
08:00+12sse71395100 2.0 1018536
11:00+13sse91391100 2.9 1017500
14:00+12s71194100 8.3 1017507
17:00+13sse61090100 5.0 1015361
20:00+13se71288100 8.4 1015399
13 april, tue
tue1323:00+13sse9148899 0.4 1014462
02:00+12sse81391100 3.1 1014615
05:00+11nnw3394100 2.6 1012135
08:00+8ene141484100 8.5 1013552
11:00+7ne101578100 5.4 10161118
14:00+7ne91380100 8.0 10181086
17:00+8ne61168100 0.7 10181159
20:00+8ne3566100 0.8 1020869
14 april, wed
wed1423:00+8wnw4472100 0.1 1021675
02:00+8nnw4480100 0.8 1022482
05:00+7nw3381100 0.6 1022451
08:00+7ne1179100 0.7 1022428
11:00+9n2267100 0.7 1023334
14:00+9wnw2266100 0.8 1022398
17:00+9w225548 0.0 1021351
20:00+9wnw015198 0.0 1022233